Location: Monteux
(44.0348°N, 4.9972°E)
Time: 17:54:15
(UTC+00:00)

H-2A R/B - Pass Details

Date: 30 November 2020
Orbit: 733 x 836 km, 98.2° (Epoch: 17 January)

Event Time Altitude Azimuth Distance (km) Brightness Sun altitude
Rises 17:59:09 0° 148° (SSE) 3,324 5.1 -20.2°
Enters shadow 17:59:26 - 147° (SSE) 3,216 5.0 -20.3°
Exits shadow 18:06:41 47° 68° (ENE) 1,043 2.2 -21.6°
Drops below altitude 10° 18:11:31 10° 358° (N) 2,333 4.4 -22.4°
Sets 18:13:52 0° 353° (N) 3,249 5.2 -22.8°
